Orbital Elements at Epoch 2455129.5 (2009-Oct-25.0) TDB
Reference: JPL 79 (heliocentric ecliptic J2000)
Element | Value | Uncertainty (1-sigma) | Units |
e | .4346533481842522 | 1.0033e-07 | |
a | 7.212203887361413 | 1.1986e-07 | au |
q | 4.077395319932295 | 7.4983e-07 | au |
i | 6.61166788171433 | 1.2274e-05 | deg |
node | 248.994162469051 | 0.00012019 | deg |
peri | 223.9172805770366 | 0.00012968 | deg |
M | 265.4497432398416 | 2.0808e-05 | deg |
tp | 2456987.563842327510 (2014-Nov-26.06384233) | 0.00040871 | TDB |
period | 7074.57606312674 19.37 | 0.00017636 4.828e-07 | d yr |
n | .05088644136238057 | 1.2685e-09 | deg/d |
Q | 10.34701245479053 | 1.7196e-07 | au |
|
| | Orbit Determination Parameters
Additional Information
|